This demonstration page uses our WeatherBlox Daily Observations layout. Learn more.

Left ArrowRight Arrow

39.01783, -85.05884

Hourly Observations for November 24, 2020

Temp ( °F °C ) Dew Point ( °F °C ) Humidity (%) Winds ( mph kmh ) Pressure ( in mb ) Visibility ( mi km ) Precip ( " mm )
12:52 am 00:52 Cloudy 40 4.4 33 0.6 77 77 E 7 11 30.31 1027 10 16.0934 0 0
1:52 am 01:52 Cloudy 40 4.4 32 0 73 73 E 8 13 30.3 1026 10 16.0934 0 0
2:52 am 02:52 Cloudy 40 4.4 32 0 73 73 ESE 6 9 30.31 1026 10 16.0934 0 0
3:52 am 03:52 Cloudy 40 4.4 31 -0.6 70 70 ESE 7 11 30.3 1026 10 16.0934 0 0
4:52 am 04:52 Cloudy 40 4.4 31 -0.6 70 70 E 3 6 30.31 1026 10 16.0934 0 0
5:52 am 05:52 Cloudy 40 4.4 32 0 73 73 ESE 8 13 30.29 1026 10 16.0934 0 0
6:52 am 06:52 Cloudy 40 4.4 32 0 73 73 ESE 7 11 30.31 1026 10 16.0934 0 0
7:52 am 07:52 Cloudy 40 4.4 33 0.6 77 77 ESE 9 15 30.29 1026 9 14.48406 0 0
8:52 am 08:52 Cloudy 41 5 33 0.6 73 73 ESE 8 13 30.31 1027 9 14.48406 0.001 0.001
9:52 am 09:52 Cloudy 42 5.6 33 0.6 71 71 SE 8 13 30.3 1026 10 16.0934 0 0
10:52 am 10:52 Cloudy 43 6.1 34 1.1 71 71 SE 9 15 30.29 1026 10 16.0934 0.001 0.001
11:52 am 11:52 Cloudy 45 7.2 34 1.1 66 66 ESE 12 19 30.25 1024 10 16.0934 0 0
12:52 pm 12:52 Cloudy 48 8.9 34 1.1 58 58 SE 10 17 30.2 1023 10 16.0934 0 0
1:52 pm 13:52 Cloudy 48 8.9 34 1.1 58 58 SE 13 20 30.17 1022 10 16.0934 0 0
2:52 pm 14:52 Cloudy 49 9.4 35 1.7 59 59 SE 14 22 30.14 1021 10 16.0934 0 0
3:52 pm 15:52 Cloudy 49 9.4 35 1.7 59 59 SE 12 19 30.13 1020 10 16.0934 0 0
4:52 pm 16:52 Cloudy 47 8.3 35 1.7 63 63 SE 10 17 30.12 1020 10 16.0934 0 0
5:52 pm 17:52 Cloudy 46 7.8 35 1.7 66 66 ESE 8 13 30.11 1020 10 16.0934 0 0
6:52 pm 18:52 Cloudy 45 7.2 35 1.7 68 68 ESE 7 11 30.11 1020 10 16.0934 0 0
7:52 pm 19:52 Cloudy 45 7.2 36 2.2 71 71 SE 7 11 30.09 1019 10 16.0934 0 0
8:52 pm 20:52 Cloudy 45 7.2 36 2.2 71 71 SE 7 11 30.09 1019 10 16.0934 0 0
9:52 pm 21:52 Cloudy 45 7.2 35 1.7 68 68 SE 8 13 30.06 1018 10 16.0934 0 0
10:52 pm 22:52 Cloudy 44 6.7 35 1.7 71 71 SSE 8 13 30.04 1017 10 16.0934 0 0
11:52 pm 23:52 Cloudy 46 7.8 34 1.1 63 63 S 9 15 30.01 1016 10 16.0934 0 0

Powered by AerisWeather